Terminal Aerodrome Forecast
Issued by NWS Twin Cities, MN

Home | Current Version | Previous Version | Graphics & Text | Print | Product List | Glossary On
Versions: 1 2 3 4 5 6 7 8 9 10 11 12 13
000
FTUS43 KMPX 141700
TAFSTC
TAF
KSTC 141740Z 1418/1518 28013G19KT P6SM SCT035 BKN200
     FM150000 30003KT P6SM BKN060 OVC120
     FM151200 33005KT P6SM SKC=

USA.gov is the U.S. government's official web portal to all federal, state and local government web resources and services.